Time,TemperatureF,DewpointF,PressureIn,WindDirection,WindDirectionDegrees,WindSpeedMPH,WindSpeedGustMPH,Humidity,HourlyPrecipIn,Conditions,Clouds,dailyrainin,SoftwareType,DateUTC
2013-08-22 00:01:00,69.5,36.7,30.03,SW,225,2.2,2.7,30,0.00,,,0.00,WUHU216HW,2013-08-22 07:01:00,
2013-08-22 00:06:00,69.5,36.7,30.04,SSW,203,2.5,2.5,30,0.00,,,0.00,WUHU216HW,2013-08-22 07:06:00,
2013-08-22 00:11:00,68.9,37.0,30.04,SE,135,2.5,3.4,31,0.00,,,0.00,WUHU216HW,2013-08-22 07:11:00,
2013-08-22 00:16:00,68.4,36.6,30.04,SE,135,2.0,3.4,31,0.00,,,0.00,WUHU216HW,2013-08-22 07:16:00,
2013-08-22 00:21:00,68.0,36.9,30.05,ESE,113,1.8,3.6,32,0.00,,,0.00,WUHU216HW,2013-08-22 07:21:00,
2013-08-22 00:26:00,67.5,36.5,30.04,ESE,113,0.4,3.6,32,0.00,,,0.00,WUHU216HW,2013-08-22 07:26:00,
2013-08-22 00:31:00,67.3,37.1,30.04,NNE,23,2.7,2.9,33,0.00,,,0.00,WUHU216HW,2013-08-22 07:31:00,
2013-08-22 00:36:00,66.6,36.5,30.03,NNE,23,2.5,3.4,33,0.00,,,0.00,WUHU216HW,2013-08-22 07:36:00,
2013-08-22 00:41:00,66.4,36.4,30.04,East,90,1.8,3.4,33,0.00,,,0.00,WUHU216HW,2013-08-22 07:41:00,
2013-08-22 00:46:00,66.2,36.9,30.04,East,90,1.8,2.5,34,0.00,,,0.00,WUHU216HW,2013-08-22 07:46:00,
2013-08-22 00:51:00,65.5,35.6,30.04,East,90,0.7,2.0,33,0.00,,,0.00,WUHU216HW,2013-08-22 07:51:00,
2013-08-22 00:56:00,65.2,35.9,30.03,NNE,23,2.0,2.0,34,0.00,,,0.00,WUHU216HW,2013-08-22 07:56:00,
2013-08-22 01:01:00,64.8,35.7,30.04,East,90,1.1,2.5,34,0.00,,,0.00,WUHU216HW,2013-08-22 08:01:00,
2013-08-22 01:06:00,64.6,34.8,30.03,East,90,0.4,2.5,33,0.00,,,0.00,WUHU216HW,2013-08-22 08:06:00,
2013-08-22 01:11:00,64.3,35.1,30.03,East,90,0.7,1.1,34,0.00,,,0.00,WUHU216HW,2013-08-22 08:11:00,
2013-08-22 01:16:00,63.5,35.9,30.03,NNE,23,1.8,2.0,36,0.00,,,0.00,WUHU216HW,2013-08-22 08:16:00,
2013-08-22 01:21:00,63.2,35.6,30.03,NNE,23,1.3,2.0,36,0.00,,,0.00,WUHU216HW,2013-08-22 08:21:00,
2013-08-22 01:26:00,63.4,35.0,30.03,NNE,23,0.7,1.8,35,0.00,,,0.00,WUHU216HW,2013-08-22 08:26:00,
2013-08-22 01:31:00,63.4,36.5,30.03,NNE,23,0.4,1.3,37,0.00,,,0.00,WUHU216HW,2013-08-22 08:31:00,
2013-08-22 01:36:00,63.0,36.2,30.03,NNE,23,1.1,1.1,37,0.00,,,0.00,WUHU216HW,2013-08-22 08:36:00,
2013-08-22 01:41:00,63.0,36.2,30.03,NNE,23,0.4,1.1,37,0.00,,,0.00,WUHU216HW,2013-08-22 08:41:00,
2013-08-22 01:46:00,62.6,35.8,30.02,NNE,23,1.8,2.5,37,0.00,,,0.00,WUHU216HW,2013-08-22 08:46:00,
2013-08-22 01:51:00,62.3,35.5,30.02,NE,45,1.6,2.5,37,0.00,,,0.00,WUHU216HW,2013-08-22 08:51:00,
2013-08-22 01:57:00,62.1,35.4,30.02,NE,45,0.7,1.8,37,0.00,,,0.00,WUHU216HW,2013-08-22 08:57:00,
2013-08-22 02:02:00,61.9,35.2,30.02,NE,45,1.1,1.3,37,0.00,,,0.00,WUHU216HW,2013-08-22 09:02:00,
2013-08-22 02:07:00,61.7,35.7,30.02,NE,45,0.4,1.3,38,0.00,,,0.00,WUHU216HW,2013-08-22 09:07:00,
2013-08-22 02:12:00,61.4,35.4,30.03,NE,45,0.9,1.3,38,0.00,,,0.00,WUHU216HW,2013-08-22 09:12:00,
2013-08-22 02:17:00,61.2,35.3,30.03,SE,135,1.3,1.3,38,0.00,,,0.00,WUHU216HW,2013-08-22 09:17:00,
2013-08-22 02:22:00,60.8,35.6,30.03,South,180,0.7,2.0,39,0.00,,,0.00,WUHU216HW,2013-08-22 09:22:00,
2013-08-22 02:27:00,60.8,34.9,30.03,SE,135,1.1,2.0,38,0.00,,,0.00,WUHU216HW,2013-08-22 09:27:00,
2013-08-22 02:32:00,60.3,35.2,30.03,SE,135,1.1,1.1,39,0.00,,,0.00,WUHU216HW,2013-08-22 09:32:00,
2013-08-22 02:37:00,59.8,34.7,30.03,SE,135,0.4,1.3,39,0.00,,,0.00,WUHU216HW,2013-08-22 09:37:00,
2013-08-22 02:42:00,59.8,34.7,30.03,SE,135,1.1,1.3,39,0.00,,,0.00,WUHU216HW,2013-08-22 09:42:00,
2013-08-22 02:47:00,59.9,35.6,30.03,SE,135,1.1,1.1,40,0.00,,,0.00,WUHU216HW,2013-08-22 09:47:00,
2013-08-22 02:52:00,60.1,35.7,30.03,SE,135,0.9,1.6,40,0.00,,,0.00,WUHU216HW,2013-08-22 09:52:00,
2013-08-22 02:57:00,60.1,35.7,30.02,SE,135,0.4,1.6,40,0.00,,,0.00,WUHU216HW,2013-08-22 09:57:00,
2013-08-22 03:02:00,59.8,36.0,30.02,SE,135,0.7,1.1,41,0.00,,,0.00,WUHU216HW,2013-08-22 10:02:00,
2013-08-22 03:07:00,59.6,35.8,30.03,SE,135,1.1,1.6,41,0.00,,,0.00,WUHU216HW,2013-08-22 10:07:00,
2013-08-22 03:12:00,59.6,36.4,30.03,ESE,113,1.8,1.8,42,0.00,,,0.00,WUHU216HW,2013-08-22 10:12:00,
2013-08-22 03:17:00,59.9,36.1,30.03,SE,135,1.1,2.5,41,0.00,,,0.00,WUHU216HW,2013-08-22 10:17:00,
2013-08-22 03:22:00,60.1,36.3,30.03,SE,135,0.9,2.5,41,0.00,,,0.00,WUHU216HW,2013-08-22 10:22:00,
2013-08-22 03:27:00,60.3,36.5,30.03,SE,135,0.0,1.6,41,0.00,,,0.00,WUHU216HW,2013-08-22 10:27:00,
2013-08-22 03:32:00,60.3,36.5,30.03,SE,135,0.0,0.9,41,0.00,,,0.00,WUHU216HW,2013-08-22 10:32:00,
2013-08-22 03:37:00,60.1,36.3,30.02,SE,135,1.1,1.1,41,0.00,,,0.00,WUHU216HW,2013-08-22 10:37:00,
2013-08-22 03:42:00,60.1,36.3,30.02,SE,135,0.2,1.1,41,0.00,,,0.00,WUHU216HW,2013-08-22 10:42:00,
2013-08-22 03:47:00,59.9,36.1,30.02,SE,135,0.4,1.1,41,0.00,,,0.00,WUHU216HW,2013-08-22 10:47:00,
2013-08-22 03:53:00,59.8,36.5,30.02,SE,135,1.3,1.3,42,0.00,,,0.00,WUHU216HW,2013-08-22 10:53:00,
2013-08-22 04:00:00,59.6,36.4,30.03,SE,135,0.7,1.6,42,0.00,,,0.00,WUHU216HW,2013-08-22 11:00:00,
2013-08-22 04:06:00,59.2,35.5,30.03,SE,135,0.0,1.6,41,0.00,,,0.00,WUHU216HW,2013-08-22 11:06:00,
2013-08-22 04:12:00,58.9,36.3,30.02,SE,135,0.2,0.2,43,0.00,,,0.00,WUHU216HW,2013-08-22 11:12:00,
2013-08-22 04:18:00,58.3,36.4,30.02,SE,135,1.1,1.1,44,0.00,,,0.00,WUHU216HW,2013-08-22 11:18:00,
2013-08-22 04:24:00,58.0,35.5,30.03,SE,135,0.0,1.1,43,0.00,,,0.00,WUHU216HW,2013-08-22 11:24:00,
2013-08-22 04:30:00,58.0,35.5,30.02,SE,135,0.0,0.4,43,0.00,,,0.00,WUHU216HW,2013-08-22 11:30:00,
2013-08-22 04:37:00,57.8,35.9,30.02,SE,135,0.0,0.0,44,0.00,,,0.00,WUHU216HW,2013-08-22 11:37:00,
2013-08-22 04:42:00,57.6,35.7,30.02,SE,135,0.0,0.0,44,0.00,,,0.00,WUHU216HW,2013-08-22 11:42:00,
2013-08-22 04:48:00,57.6,36.4,30.02,SE,135,0.0,0.0,45,0.00,,,0.00,WUHU216HW,2013-08-22 11:48:00,
2013-08-22 04:55:00,57.6,35.7,30.02,SE,135,0.0,0.4,44,0.00,,,0.00,WUHU216HW,2013-08-22 11:55:00,
2013-08-22 05:01:00,57.4,36.2,30.02,SE,135,0.4,1.1,45,0.00,,,0.00,WUHU216HW,2013-08-22 12:01:00,
2013-08-22 05:07:00,57.2,36.0,30.02,SE,135,1.3,1.3,45,0.00,,,0.00,WUHU216HW,2013-08-22 12:07:00,
2013-08-22 05:13:00,57.2,35.5,30.02,SE,135,0.7,1.8,44,0.00,,,0.00,WUHU216HW,2013-08-22 12:13:00,
2013-08-22 05:28:00,57.2,35.5,30.02,SE,135,0.2,1.8,44,0.00,,,0.00,WUHU216HW,2013-08-22 12:28:00,
2013-08-22 05:36:00,57.2,35.5,30.03,SE,135,0.0,0.2,44,0.00,,,0.00,WUHU216HW,2013-08-22 12:36:00,
2013-08-22 05:41:00,57.2,36.0,30.03,SE,135,1.1,1.1,45,0.00,,,0.00,WUHU216HW,2013-08-22 12:41:00,
2013-08-22 05:46:00,57.2,36.0,30.03,SE,135,1.1,1.8,45,0.00,,,0.00,WUHU216HW,2013-08-22 12:46:00,
2013-08-22 05:51:00,57.4,36.2,30.03,SE,135,0.4,1.8,45,0.00,,,0.00,WUHU216HW,2013-08-22 12:51:00,
2013-08-22 05:56:00,57.6,36.4,30.03,SE,135,0.0,0.9,45,0.00,,,0.00,WUHU216HW,2013-08-22 12:56:00,
2013-08-22 06:01:00,57.6,36.4,30.03,SE,135,0.2,0.4,45,0.00,,,0.00,WUHU216HW,2013-08-22 13:01:00,
2013-08-22 06:06:00,57.6,36.4,30.03,SE,135,1.3,1.3,45,0.00,,,0.00,WUHU216HW,2013-08-22 13:06:00,
2013-08-22 06:11:00,57.6,37.4,30.03,ESE,113,1.1,1.3,47,0.00,,,0.00,WUHU216HW,2013-08-22 13:11:00,
2013-08-22 06:16:00,58.0,37.3,30.02,NNE,23,0.7,1.3,46,0.00,,,0.00,WUHU216HW,2013-08-22 13:16:00,
2013-08-22 06:21:00,58.0,37.3,30.03,NNE,23,0.0,1.3,46,0.00,,,0.00,WUHU216HW,2013-08-22 13:21:00,
2013-08-22 06:26:00,58.0,37.3,30.03,North,0,0.9,1.1,46,0.00,,,0.00,WUHU216HW,2013-08-22 13:26:00,
2013-08-22 06:31:00,57.8,37.6,30.03,North,0,1.3,1.3,47,0.00,,,0.00,WUHU216HW,2013-08-22 13:31:00,
2013-08-22 06:36:00,57.6,37.4,30.03,NE,45,1.1,2.0,47,0.00,,,0.00,WUHU216HW,2013-08-22 13:36:00,
2013-08-22 06:41:00,57.4,37.9,30.03,SW,225,3.4,4.0,48,0.00,,,0.00,WUHU216HW,2013-08-22 13:41:00,
2013-08-22 06:46:00,57.2,37.2,30.03,SW,225,0.0,4.0,47,0.00,,,0.00,WUHU216HW,2013-08-22 13:46:00,
2013-08-22 06:51:00,57.2,37.2,30.04,SW,225,1.1,1.1,47,0.00,,,0.00,WUHU216HW,2013-08-22 13:51:00,
2013-08-22 06:56:00,57.2,37.7,30.04,SW,225,0.0,1.1,48,0.00,,,0.00,WUHU216HW,2013-08-22 13:56:00,
2013-08-22 07:01:00,57.2,37.7,30.03,SW,225,2.0,2.0,48,0.00,,,0.00,WUHU216HW,2013-08-22 14:01:00,
2013-08-22 07:06:00,57.1,37.0,30.04,SW,225,0.4,2.0,47,0.00,,,0.00,WUHU216HW,2013-08-22 14:06:00,
2013-08-22 07:11:00,57.1,37.0,30.04,SW,225,0.0,1.8,47,0.00,,,0.00,WUHU216HW,2013-08-22 14:11:00,
2013-08-22 07:16:00,57.4,37.9,30.03,SW,225,1.8,1.8,48,0.00,,,0.00,WUHU216HW,2013-08-22 14:16:00,
2013-08-22 07:21:00,57.4,37.9,30.03,SW,225,0.0,2.0,48,0.00,,,0.00,WUHU216HW,2013-08-22 14:21:00,
2013-08-22 07:26:00,57.8,38.3,30.03,SSW,203,2.2,2.2,48,0.00,,,0.00,WUHU216HW,2013-08-22 14:26:00,
2013-08-22 07:31:00,58.0,37.8,30.03,South,180,0.9,4.0,47,0.00,,,0.00,WUHU216HW,2013-08-22 14:31:00,
2013-08-22 07:36:00,58.3,38.2,30.03,South,180,0.4,4.0,47,0.00,,,0.00,WUHU216HW,2013-08-22 14:36:00,
2013-08-22 07:41:00,58.5,38.3,30.03,South,180,0.2,2.0,47,0.00,,,0.00,WUHU216HW,2013-08-22 14:41:00,
2013-08-22 07:46:00,58.9,38.1,30.03,SSE,158,1.8,2.0,46,0.00,,,0.00,WUHU216HW,2013-08-22 14:46:00,
2013-08-22 07:51:00,59.2,38.3,30.03,SSE,158,0.7,2.0,46,0.00,,,0.00,WUHU216HW,2013-08-22 14:51:00,
2013-08-22 07:56:00,59.4,38.0,30.03,SSE,158,1.1,1.3,45,0.00,,,0.00,WUHU216HW,2013-08-22 14:56:00,
2013-08-22 08:01:00,59.8,38.3,30.03,SSE,158,1.6,1.8,45,0.00,,,0.00,WUHU216HW,2013-08-22 15:01:00,
2013-08-22 08:06:00,60.1,38.0,30.02,SE,135,2.0,2.0,44,0.00,,,0.00,WUHU216HW,2013-08-22 15:06:00,
2013-08-22 08:11:00,60.5,38.9,30.03,SE,135,1.8,2.0,45,0.00,,,0.00,WUHU216HW,2013-08-22 15:11:00,
2013-08-22 08:16:00,60.7,38.5,30.02,SSE,158,2.5,2.5,44,0.00,,,0.00,WUHU216HW,2013-08-22 15:16:00,
2013-08-22 08:21:00,61.0,38.3,30.03,SSE,158,1.3,2.5,43,0.00,,,0.00,WUHU216HW,2013-08-22 15:21:00,
2013-08-22 08:26:00,61.4,38.6,30.03,South,180,1.1,2.7,43,0.00,,,0.00,WUHU216HW,2013-08-22 15:26:00,
2013-08-22 08:31:00,61.6,38.7,30.03,SSE,158,4.0,4.7,43,0.00,,,0.00,WUHU216HW,2013-08-22 15:31:00,
2013-08-22 08:36:00,61.6,38.7,30.03,South,180,3.6,4.7,43,0.00,,,0.00,WUHU216HW,2013-08-22 15:36:00,
2013-08-22 08:41:00,61.7,38.9,30.03,South,180,3.8,4.0,43,0.00,,,0.00,WUHU216HW,2013-08-22 15:41:00,
2013-08-22 08:46:00,62.6,39.2,30.03,SE,135,3.4,4.0,42,0.00,,,0.00,WUHU216HW,2013-08-22 15:46:00,
2013-08-22 08:51:00,63.7,39.5,30.03,SSE,158,3.6,4.7,41,0.00,,,0.00,WUHU216HW,2013-08-22 15:51:00,
2013-08-22 08:56:00,64.4,39.6,30.03,SSE,158,4.9,6.7,40,0.00,,,0.00,WUHU216HW,2013-08-22 15:56:00,
2013-08-22 09:01:00,65.0,40.1,30.03,SE,135,3.4,6.7,40,0.00,,,0.00,WUHU216HW,2013-08-22 16:01:00,
2013-08-22 09:06:00,65.7,39.3,30.03,South,180,2.2,6.3,38,0.00,,,0.00,WUHU216HW,2013-08-22 16:06:00,
2013-08-22 09:11:00,65.9,39.4,30.03,SSE,158,3.4,6.3,38,0.00,,,0.00,WUHU216HW,2013-08-22 16:11:00,
2013-08-22 09:16:00,66.6,40.2,30.03,SE,135,2.0,4.5,38,0.00,,,0.00,WUHU216HW,2013-08-22 16:16:00,
2013-08-22 09:21:00,67.0,40.4,30.03,South,180,3.4,4.0,38,0.00,,,0.00,WUHU216HW,2013-08-22 16:21:00,
2013-08-22 09:26:00,67.1,41.3,30.03,South,180,4.5,4.5,39,0.00,,,0.00,WUHU216HW,2013-08-22 16:26:00,
2013-08-22 09:31:00,67.0,40.4,30.02,SSE,158,0.4,4.5,38,0.00,,,0.00,WUHU216HW,2013-08-22 16:31:00,
2013-08-22 09:36:00,66.8,40.2,30.02,SSE,158,1.3,2.5,38,0.00,,,0.00,WUHU216HW,2013-08-22 16:36:00,
2013-08-22 09:41:00,67.0,39.7,30.02,SSE,158,1.1,1.3,37,0.00,,,0.00,WUHU216HW,2013-08-22 16:41:00,
2013-08-22 09:46:00,67.1,41.3,30.02,SSE,158,0.7,1.1,39,0.00,,,0.00,WUHU216HW,2013-08-22 16:46:00,
2013-08-22 09:51:00,67.3,41.5,30.03,SSE,158,1.1,1.8,39,0.00,,,0.00,WUHU216HW,2013-08-22 16:51:00,
2013-08-22 09:56:00,67.3,40.8,30.03,SSE,158,3.4,3.4,38,0.00,,,0.00,WUHU216HW,2013-08-22 16:56:00,
2013-08-22 10:01:00,67.5,41.6,30.03,SSW,203,1.6,3.6,39,0.00,,,0.00,WUHU216HW,2013-08-22 17:01:00,
2013-08-22 10:06:00,67.5,41.6,30.03,South,180,2.5,3.6,39,0.00,,,0.00,WUHU216HW,2013-08-22 17:06:00,
2013-08-22 10:11:00,67.5,40.9,30.03,SSE,158,4.3,4.7,38,0.00,,,0.00,WUHU216HW,2013-08-22 17:11:00,
2013-08-22 10:16:00,67.5,40.9,30.02,South,180,2.7,4.7,38,0.00,,,0.00,WUHU216HW,2013-08-22 17:16:00,
2013-08-22 10:21:00,67.3,41.5,30.03,South,180,1.8,3.4,39,0.00,,,0.00,WUHU216HW,2013-08-22 17:21:00,
2013-08-22 10:26:00,67.1,41.3,30.02,South,180,1.1,2.9,39,0.00,,,0.00,WUHU216HW,2013-08-22 17:26:00,
2013-08-22 10:31:00,67.1,41.3,30.01,South,180,1.1,1.6,39,0.00,,,0.00,WUHU216HW,2013-08-22 17:31:00,
2013-08-22 10:36:00,67.1,41.3,30.01,NNW,338,2.0,2.5,39,0.00,,,0.00,WUHU216HW,2013-08-22 17:36:00,
2013-08-22 10:41:00,67.1,44.4,30.01,ESE,113,3.4,3.4,44,0.00,,,0.00,WUHU216HW,2013-08-22 17:41:00,
2013-08-22 10:46:00,66.8,44.6,30.01,North,0,0.4,3.4,45,0.00,,,0.00,WUHU216HW,2013-08-22 17:46:00,
2013-08-22 10:51:00,67.1,45.0,30.01,South,180,3.8,4.5,45,0.00,,,0.00,WUHU216HW,2013-08-22 17:51:00,
2013-08-22 10:56:00,67.5,42.9,30.01,South,180,2.9,4.5,41,0.00,,,0.00,WUHU216HW,2013-08-22 17:56:00,
2013-08-22 11:01:00,67.7,42.5,30.02,SSE,158,3.4,4.7,40,0.00,,,0.00,WUHU216HW,2013-08-22 18:01:00,
2013-08-22 11:06:00,68.0,43.5,30.02,SSE,158,3.8,4.7,41,0.00,,,0.00,WUHU216HW,2013-08-22 18:06:00,
2013-08-22 11:11:00,68.8,42.8,30.01,SE,135,2.5,4.3,39,0.00,,,0.00,WUHU216HW,2013-08-22 18:11:00,
2013-08-22 11:16:00,69.5,43.4,30.01,SE,135,4.0,4.3,39,0.00,,,0.00,WUHU216HW,2013-08-22 18:16:00,
2013-08-22 11:21:00,71.5,42.2,30.01,SW,225,3.4,4.0,35,0.00,,,0.00,WUHU216HW,2013-08-22 18:21:00,
2013-08-22 11:26:00,72.4,42.3,30.02,SSW,203,2.9,5.6,34,0.00,,,0.00,WUHU216HW,2013-08-22 18:26:00,
2013-08-22 11:31:00,72.5,41.7,30.01,SSW,203,1.8,5.6,33,0.00,,,0.00,WUHU216HW,2013-08-22 18:31:00,
2013-08-22 11:36:00,72.9,41.9,30.01,South,180,2.0,4.9,33,0.00,,,0.00,WUHU216HW,2013-08-22 18:36:00,
2013-08-22 11:41:00,73.4,41.7,30.01,SW,225,1.8,5.8,32,0.00,,,0.00,WUHU216HW,2013-08-22 18:41:00,
2013-08-22 11:46:00,74.2,42.3,30.00,SSW,203,1.8,5.8,32,0.00,,,0.00,WUHU216HW,2013-08-22 18:46:00,
2013-08-22 11:51:00,75.1,42.4,30.00,SE,135,1.8,3.6,31,0.00,,,0.00,WUHU216HW,2013-08-22 18:51:00,
2013-08-22 11:56:00,76.3,42.8,30.00,SSW,203,2.0,4.0,30,0.00,,,0.00,WUHU216HW,2013-08-22 18:56:00,
2013-08-22 12:01:00,76.9,42.2,30.00,South,180,2.0,4.0,29,0.00,,,0.00,WUHU216HW,2013-08-22 19:01:00,
2013-08-22 12:06:00,77.4,40.5,30.00,SW,225,3.8,3.8,27,0.00,,,0.00,WUHU216HW,2013-08-22 19:06:00,
2013-08-22 12:11:00,77.6,39.6,29.99,SW,225,5.1,5.1,26,0.00,,,0.00,WUHU216HW,2013-08-22 19:11:00,
2013-08-22 12:16:00,78.5,40.3,29.99,South,180,3.1,5.1,26,0.00,,,0.00,WUHU216HW,2013-08-22 19:16:00,
2013-08-22 12:21:00,79.2,40.0,29.99,South,180,1.1,5.1,25,0.00,,,0.00,WUHU216HW,2013-08-22 19:21:00,
2013-08-22 12:26:00,79.6,40.2,29.98,SW,225,1.8,1.8,25,0.00,,,0.00,WUHU216HW,2013-08-22 19:26:00,
2013-08-22 12:31:00,79.9,39.5,29.98,SW,225,2.0,2.0,24,0.00,,,0.00,WUHU216HW,2013-08-22 19:31:00,
2013-08-22 12:36:00,80.1,40.8,29.99,SSW,203,3.1,3.1,25,0.00,,,0.00,WUHU216HW,2013-08-22 19:36:00,
2013-08-22 12:42:00,80.6,41.2,29.99,SSW,203,1.1,3.1,25,0.00,,,0.00,WUHU216HW,2013-08-22 19:42:00,
2013-08-22 12:47:00,80.6,41.2,29.99,South,180,3.1,6.9,25,0.00,,,0.00,WUHU216HW,2013-08-22 19:47:00,
2013-08-22 12:52:00,80.3,40.9,29.99,SSW,203,2.5,6.9,25,0.00,,,0.00,WUHU216HW,2013-08-22 19:52:00,
2013-08-22 12:57:00,80.5,41.0,29.98,South,180,4.5,6.3,25,0.00,,,0.00,WUHU216HW,2013-08-22 19:57:00,
2013-08-22 13:02:00,80.6,41.2,29.99,SSW,203,1.8,4.5,25,0.00,,,0.00,WUHU216HW,2013-08-22 20:02:00,
2013-08-22 13:07:00,80.6,42.3,29.99,SSW,203,2.5,4.0,26,0.00,,,0.00,WUHU216HW,2013-08-22 20:07:00,
2013-08-22 13:12:00,81.2,41.7,29.99,ESE,113,2.0,3.8,25,0.00,,,0.00,WUHU216HW,2013-08-22 20:12:00,
2013-08-22 13:17:00,81.2,41.7,29.99,East,90,2.7,4.0,25,0.00,,,0.00,WUHU216HW,2013-08-22 20:17:00,
2013-08-22 13:22:00,81.7,42.1,29.98,North,0,1.1,4.0,25,0.00,,,0.00,WUHU216HW,2013-08-22 20:22:00,
2013-08-22 13:27:00,82.3,42.5,29.98,North,0,0.4,3.8,25,0.00,,,0.00,WUHU216HW,2013-08-22 20:27:00,
2013-08-22 13:32:00,82.8,42.9,29.98,West,270,1.1,3.8,25,0.00,,,0.00,WUHU216HW,2013-08-22 20:32:00,
2013-08-22 13:37:00,82.8,42.9,29.98,NNE,23,2.7,4.3,25,0.00,,,0.00,WUHU216HW,2013-08-22 20:37:00,
2013-08-22 13:42:00,82.1,42.4,29.98,North,0,2.9,4.3,25,0.00,,,0.00,WUHU216HW,2013-08-22 20:42:00,
2013-08-22 13:47:00,82.4,42.7,29.98,North,0,4.0,4.7,25,0.00,,,0.00,WUHU216HW,2013-08-22 20:47:00,
2013-08-22 13:52:00,83.0,42.0,29.98,NW,315,2.2,5.4,24,0.00,,,0.00,WUHU216HW,2013-08-22 20:52:00,
2013-08-22 13:57:00,82.8,42.0,29.98,NW,315,1.8,5.4,24,0.00,,,0.00,WUHU216HW,2013-08-22 20:57:00,
2013-08-22 14:02:00,83.2,42.2,29.97,NE,45,2.7,4.9,24,0.00,,,0.00,WUHU216HW,2013-08-22 21:02:00,
2013-08-22 14:07:00,83.2,42.2,29.98,NNE,23,4.0,5.8,24,0.00,,,0.00,WUHU216HW,2013-08-22 21:07:00,
2013-08-22 14:12:00,83.5,42.5,29.98,North,0,2.5,5.8,24,0.00,,,0.00,WUHU216HW,2013-08-22 21:12:00,
2013-08-22 14:17:00,83.7,42.7,29.98,North,0,2.9,4.3,24,0.00,,,0.00,WUHU216HW,2013-08-22 21:17:00,
2013-08-22 14:22:00,83.7,42.7,29.98,NNW,338,0.9,3.8,24,0.00,,,0.00,WUHU216HW,2013-08-22 21:22:00,
2013-08-22 14:27:00,83.7,42.7,29.98,NW,315,4.0,4.0,24,0.00,,,0.00,WUHU216HW,2013-08-22 21:27:00,
2013-08-22 14:32:00,83.5,42.5,29.98,NNW,338,1.1,4.0,24,0.00,,,0.00,WUHU216HW,2013-08-22 21:32:00,
2013-08-22 14:37:00,83.2,42.2,29.98,North,0,1.1,3.4,24,0.00,,,0.00,WUHU216HW,2013-08-22 21:37:00,
2013-08-22 14:42:00,83.0,42.0,29.98,WNW,293,1.6,3.4,24,0.00,,,0.00,WUHU216HW,2013-08-22 21:42:00,
2013-08-22 14:47:00,83.3,42.4,29.98,NNW,338,4.7,4.7,24,0.00,,,0.00,WUHU216HW,2013-08-22 21:47:00,
2013-08-22 14:52:00,83.7,41.6,29.98,West,270,2.7,5.4,23,0.00,,,0.00,WUHU216HW,2013-08-22 21:52:00,
2013-08-22 14:57:00,83.2,42.2,29.98,NNE,23,3.1,5.4,24,0.00,,,0.00,WUHU216HW,2013-08-22 21:57:00,
2013-08-22 15:02:00,83.0,42.0,29.98,NE,45,2.5,4.7,24,0.00,,,0.00,WUHU216HW,2013-08-22 22:02:00,
2013-08-22 15:07:00,82.8,42.0,29.98,North,0,1.3,4.7,24,0.00,,,0.00,WUHU216HW,2013-08-22 22:07:00,
2013-08-22 15:12:00,82.8,42.0,29.98,NW,315,1.3,2.0,24,0.00,,,0.00,WUHU216HW,2013-08-22 22:12:00,
2013-08-22 15:17:00,82.4,41.6,29.98,West,270,0.9,2.0,24,0.00,,,0.00,WUHU216HW,2013-08-22 22:17:00,
2013-08-22 15:22:00,82.3,42.5,29.98,West,270,4.7,4.7,25,0.00,,,0.00,WUHU216HW,2013-08-22 22:22:00,
2013-08-22 15:27:00,81.2,49.2,29.98,SW,225,8.5,8.9,33,0.00,,,0.00,WUHU216HW,2013-08-22 22:27:00,
2013-08-22 15:32:00,80.3,51.6,29.99,WSW,248,10.7,13.0,37,0.00,,,0.00,WUHU216HW,2013-08-22 22:32:00,
2013-08-22 15:37:00,78.8,53.2,29.99,West,270,4.3,13.0,41,0.00,,,0.00,WUHU216HW,2013-08-22 22:37:00,
2013-08-22 15:42:00,77.4,53.7,29.99,West,270,4.5,12.5,44,0.00,,,0.00,WUHU216HW,2013-08-22 22:42:00,
2013-08-22 15:47:00,77.4,53.7,29.99,West,270,4.7,12.5,44,0.00,,,0.00,WUHU216HW,2013-08-22 22:47:00,
2013-08-22 15:52:00,77.8,52.8,29.99,WSW,248,11.9,11.9,42,0.00,,,0.00,WUHU216HW,2013-08-22 22:52:00,
2013-08-22 15:57:00,77.9,53.6,29.99,WNW,293,8.3,11.9,43,0.00,,,0.00,WUHU216HW,2013-08-22 22:57:00,
2013-08-22 16:02:00,77.4,54.4,29.99,SW,225,7.8,13.4,45,0.00,,,0.00,WUHU216HW,2013-08-22 23:02:00,
2013-08-22 16:07:00,76.3,54.0,30.00,WSW,248,6.3,13.4,46,0.00,,,0.00,WUHU216HW,2013-08-22 23:07:00,
2013-08-22 16:12:00,75.6,53.9,30.00,WSW,248,11.6,12.8,47,0.00,,,0.00,WUHU216HW,2013-08-22 23:12:00,
2013-08-22 16:17:00,74.9,53.8,30.00,WSW,248,9.2,12.8,48,0.00,,,0.00,WUHU216HW,2013-08-22 23:17:00,
2013-08-22 16:22:00,74.5,54.7,30.00,West,270,3.1,10.5,50,0.00,,,0.00,WUHU216HW,2013-08-22 23:22:00,
2013-08-22 16:27:00,73.8,55.0,30.00,SW,225,7.6,11.0,52,0.00,,,0.00,WUHU216HW,2013-08-22 23:27:00,
2013-08-22 16:32:00,73.1,54.8,29.99,SW,225,9.8,12.8,53,0.00,,,0.00,WUHU216HW,2013-08-22 23:32:00,
2013-08-22 16:37:00,72.4,55.2,29.99,WSW,248,7.8,12.8,55,0.00,,,0.00,WUHU216HW,2013-08-22 23:37:00,
2013-08-22 16:42:00,72.0,55.9,29.99,WSW,248,13.9,15.7,57,0.00,,,0.00,WUHU216HW,2013-08-22 23:42:00,
2013-08-22 16:47:00,71.5,55.9,29.99,WSW,248,6.9,15.7,58,0.00,,,0.00,WUHU216HW,2013-08-22 23:47:00,
2013-08-22 16:52:00,70.9,55.9,29.99,SSW,203,5.4,10.5,59,0.00,,,0.00,WUHU216HW,2013-08-22 23:52:00,
2013-08-22 16:57:00,70.7,55.7,29.99,WSW,248,5.6,10.1,59,0.00,,,0.00,WUHU216HW,2013-08-22 23:57:00,
2013-08-22 17:02:00,70.4,54.9,29.99,West,270,5.8,8.7,58,0.00,,,0.00,WUHU216HW,2013-08-23 00:02:00,
2013-08-22 17:07:00,70.2,54.3,29.99,WNW,293,4.7,8.7,57,0.00,,,0.00,WUHU216HW,2013-08-23 00:07:00,
2013-08-22 17:12:00,70.2,55.3,29.99,WSW,248,1.6,7.8,59,0.00,,,0.00,WUHU216HW,2013-08-23 00:12:00,
2013-08-22 17:17:00,69.5,56.4,30.00,SSW,203,5.8,6.5,63,0.00,,,0.00,WUHU216HW,2013-08-23 00:17:00,
2013-08-22 17:22:00,68.8,58.6,30.00,SW,225,2.5,5.8,70,0.02,,,0.02,WUHU216HW,2013-08-23 00:22:00,
2013-08-22 17:27:00,67.9,58.5,30.01,SE,135,3.1,4.5,72,0.02,,,0.02,WUHU216HW,2013-08-23 00:27:00,
2013-08-22 17:32:00,66.4,59.4,30.01,East,90,4.7,4.7,78,0.04,,,0.04,WUHU216HW,2013-08-23 00:32:00,
2013-08-22 17:37:00,65.5,59.2,30.02,SE,135,3.8,5.4,80,0.06,,,0.04,WUHU216HW,2013-08-23 00:37:00,
2013-08-22 17:42:00,65.2,59.2,30.01,NE,45,2.7,5.4,81,0.06,,,0.07,WUHU216HW,2013-08-23 00:42:00,
2013-08-22 17:47:00,64.8,59.9,29.99,North,0,5.6,5.6,84,0.06,,,0.07,WUHU216HW,2013-08-23 00:47:00,
2013-08-22 17:52:00,64.8,59.5,29.96,WNW,293,4.0,6.7,83,0.06,,,0.07,WUHU216HW,2013-08-23 00:52:00,
2013-08-22 17:57:00,64.3,58.7,29.97,SSW,203,8.5,8.5,82,0.06,,,0.07,WUHU216HW,2013-08-23 00:57:00,
2013-08-22 18:02:00,64.1,57.4,29.96,SW,225,4.0,8.5,79,0.06,,,0.07,WUHU216HW,2013-08-23 01:02:00,
2013-08-22 18:07:00,65.0,57.6,29.95,WSW,248,9.4,9.4,77,0.06,,,0.07,WUHU216HW,2013-08-23 01:07:00,
2013-08-22 18:12:00,65.2,57.4,29.96,WSW,248,6.9,9.4,76,0.06,,,0.07,WUHU216HW,2013-08-23 01:12:00,
2013-08-22 18:17:00,65.5,57.0,29.96,WSW,248,2.7,6.9,74,0.06,,,0.07,WUHU216HW,2013-08-23 01:17:00,
2013-08-22 18:22:00,65.9,57.3,29.97,WSW,248,1.1,5.1,74,0.04,,,0.07,WUHU216HW,2013-08-23 01:22:00,
2013-08-22 18:27:00,66.2,56.5,29.97,West,270,0.0,4.0,71,0.02,,,0.07,WUHU216HW,2013-08-23 01:27:00,
2013-08-22 18:32:00,66.8,57.4,29.97,ENE,68,4.0,4.0,72,0.02,,,0.07,WUHU216HW,2013-08-23 01:32:00,
2013-08-22 18:37:00,66.8,57.9,29.98,NNE,23,1.6,4.0,73,0.00,,,0.07,WUHU216HW,2013-08-23 01:37:00,
2013-08-22 18:42:00,66.6,57.2,29.98,NNE,23,0.4,3.1,72,0.00,,,0.07,WUHU216HW,2013-08-23 01:42:00,
2013-08-22 18:47:00,67.0,58.4,29.98,NNE,23,1.3,1.3,74,0.00,,,0.07,WUHU216HW,2013-08-23 01:47:00,
2013-08-22 18:52:00,66.6,58.1,29.98,East,90,3.6,3.6,74,0.00,,,0.07,WUHU216HW,2013-08-23 01:52:00,
2013-08-22 18:57:00,66.6,58.1,29.98,ESE,113,1.8,3.6,74,0.00,,,0.07,WUHU216HW,2013-08-23 01:57:00,
2013-08-22 19:02:00,66.2,57.7,29.98,ESE,113,1.1,2.2,74,0.00,,,0.07,WUHU216HW,2013-08-23 02:02:00,
2013-08-22 19:07:00,66.2,57.7,29.98,ESE,113,0.7,1.8,74,0.00,,,0.07,WUHU216HW,2013-08-23 02:07:00,
2013-08-22 19:12:00,66.1,57.2,29.98,ESE,113,1.8,1.8,73,0.00,,,0.07,WUHU216HW,2013-08-23 02:12:00,
2013-08-22 19:17:00,65.9,57.3,29.98,ESE,113,1.1,1.8,74,0.00,,,0.07,WUHU216HW,2013-08-23 02:17:00,
2013-08-22 19:22:00,65.9,57.3,29.98,ESE,113,0.0,1.6,74,0.00,,,0.07,WUHU216HW,2013-08-23 02:22:00,
2013-08-22 19:27:00,65.5,57.0,29.98,ESE,113,0.7,0.7,74,0.00,,,0.07,WUHU216HW,2013-08-23 02:27:00,
2013-08-22 19:32:00,65.5,57.0,29.98,ESE,113,0.7,1.6,74,0.00,,,0.07,WUHU216HW,2013-08-23 02:32:00,
2013-08-22 19:37:00,65.3,57.6,29.98,ESE,113,0.0,1.6,76,0.00,,,0.07,WUHU216HW,2013-08-23 02:37:00,
2013-08-22 19:42:00,65.0,58.3,29.97,ESE,113,0.7,1.3,79,0.00,,,0.07,WUHU216HW,2013-08-23 02:42:00,
2013-08-22 19:47:00,64.8,57.8,29.98,ESE,113,1.1,1.8,78,0.00,,,0.07,WUHU216HW,2013-08-23 02:47:00,
2013-08-22 19:52:00,64.8,58.5,29.97,ESE,113,2.9,2.9,80,0.00,,,0.07,WUHU216HW,2013-08-23 02:52:00,
2013-08-22 19:57:00,64.4,58.1,29.98,ESE,113,2.5,2.9,80,0.00,,,0.07,WUHU216HW,2013-08-23 02:57:00,
2013-08-22 20:02:00,64.3,57.6,29.98,SSE,158,2.5,3.8,79,0.00,,,0.07,WUHU216HW,2013-08-23 03:02:00,
2013-08-22 20:07:00,64.3,57.6,29.98,SE,135,2.7,3.8,79,0.00,,,0.07,WUHU216HW,2013-08-23 03:07:00,
2013-08-22 20:12:00,64.1,57.8,29.97,ESE,113,2.7,3.4,80,0.00,,,0.07,WUHU216HW,2013-08-23 03:12:00,
2013-08-22 20:17:00,64.1,57.4,29.97,ESE,113,1.6,3.4,79,0.00,,,0.07,WUHU216HW,2013-08-23 03:17:00,
2013-08-22 20:22:00,64.1,57.4,29.97,SE,135,3.1,3.4,79,0.00,,,0.07,WUHU216HW,2013-08-23 03:22:00,
2013-08-22 20:27:00,64.1,57.8,29.98,SE,135,3.4,3.6,80,0.00,,,0.07,WUHU216HW,2013-08-23 03:27:00,
2013-08-22 20:32:00,64.1,57.4,29.98,SE,135,4.0,4.0,79,0.00,,,0.07,WUHU216HW,2013-08-23 03:32:00,
2013-08-22 20:37:00,64.1,57.4,29.98,SSE,158,2.5,4.0,79,0.00,,,0.07,WUHU216HW,2013-08-23 03:37:00,
2013-08-22 20:42:00,63.9,57.2,29.98,SE,135,5.4,5.4,79,0.00,,,0.07,WUHU216HW,2013-08-23 03:42:00,
2013-08-22 20:47:00,63.9,57.6,29.99,ESE,113,3.4,5.4,80,0.00,,,0.07,WUHU216HW,2013-08-23 03:47:00,
2013-08-22 20:52:00,63.9,57.6,29.99,SSE,158,3.6,4.3,80,0.00,,,0.07,WUHU216HW,2013-08-23 03:52:00,
2013-08-22 20:57:00,63.9,57.6,29.99,South,180,2.7,4.3,80,0.00,,,0.07,WUHU216HW,2013-08-23 03:57:00,
2013-08-22 21:02:00,63.9,57.2,29.99,South,180,2.5,2.9,79,0.00,,,0.07,WUHU216HW,2013-08-23 04:02:00,
2013-08-22 21:07:00,63.9,57.2,29.99,SSE,158,1.8,2.9,79,0.00,,,0.07,WUHU216HW,2013-08-23 04:07:00,
2013-08-22 21:12:00,63.9,57.2,29.99,SSW,203,1.3,3.4,79,0.00,,,0.07,WUHU216HW,2013-08-23 04:12:00,
2013-08-22 21:17:00,63.9,57.2,29.99,SSW,203,1.8,3.4,79,0.00,,,0.07,WUHU216HW,2013-08-23 04:17:00,
2013-08-22 21:22:00,63.9,56.9,30.00,SSW,203,2.7,4.7,78,0.00,,,0.07,WUHU216HW,2013-08-23 04:22:00,
2013-08-22 21:27:00,63.9,56.5,30.00,SSW,203,2.2,4.7,77,0.00,,,0.07,WUHU216HW,2013-08-23 04:27:00,
2013-08-22 21:32:00,63.9,56.5,29.99,SW,225,0.7,3.6,77,0.00,,,0.07,WUHU216HW,2013-08-23 04:32:00,
2013-08-22 21:37:00,63.9,55.8,29.99,SSW,203,1.3,2.9,75,0.00,,,0.07,WUHU216HW,2013-08-23 04:37:00,
2013-08-22 21:42:00,63.9,55.4,29.99,SW,225,0.0,2.5,74,0.00,,,0.07,WUHU216HW,2013-08-23 04:42:00,
2013-08-22 21:47:00,63.9,54.7,29.98,WSW,248,0.7,2.5,72,0.00,,,0.07,WUHU216HW,2013-08-23 04:47:00,
2013-08-22 21:52:00,64.1,54.5,29.98,West,270,1.8,1.8,71,0.00,,,0.07,WUHU216HW,2013-08-23 04:52:00,
2013-08-22 21:57:00,64.3,54.4,29.98,West,270,0.0,1.8,70,0.00,,,0.07,WUHU216HW,2013-08-23 04:57:00,
2013-08-22 22:02:00,64.1,54.2,29.97,West,270,0.0,0.9,70,0.00,,,0.07,WUHU216HW,2013-08-23 05:02:00,
2013-08-22 22:07:00,63.7,53.8,29.98,West,270,2.0,2.0,70,0.00,,,0.07,WUHU216HW,2013-08-23 05:07:00,
2013-08-22 22:12:00,63.5,54.0,29.98,NE,45,2.0,3.1,71,0.00,,,0.07,WUHU216HW,2013-08-23 05:12:00,
2013-08-22 22:17:00,63.4,53.8,29.97,East,90,2.0,4.0,71,0.00,,,0.07,WUHU216HW,2013-08-23 05:17:00,
2013-08-22 22:22:00,63.5,54.4,29.97,ENE,68,1.3,4.0,72,0.00,,,0.07,WUHU216HW,2013-08-23 05:22:00,
2013-08-22 22:27:00,63.0,54.2,29.97,East,90,1.1,3.4,73,0.00,,,0.07,WUHU216HW,2013-08-23 05:27:00,
2013-08-22 22:32:00,62.5,53.3,29.98,ESE,113,2.9,2.9,72,0.00,,,0.07,WUHU216HW,2013-08-23 05:32:00,
2013-08-22 22:37:00,62.5,53.3,29.98,ESE,113,0.9,2.9,72,0.00,,,0.07,WUHU216HW,2013-08-23 05:37:00,
2013-08-22 22:42:00,62.6,53.5,29.98,ESE,113,2.5,2.5,72,0.00,,,0.07,WUHU216HW,2013-08-23 05:42:00,
2013-08-22 22:47:00,62.5,53.3,29.98,SE,135,3.4,3.4,72,0.00,,,0.07,WUHU216HW,2013-08-23 05:47:00,
2013-08-22 22:52:00,62.5,52.9,29.98,SE,135,0.2,3.4,71,0.00,,,0.07,WUHU216HW,2013-08-23 05:52:00,
2013-08-22 22:57:00,62.5,53.3,29.97,SE,135,1.3,1.8,72,0.00,,,0.07,WUHU216HW,2013-08-23 05:57:00,
2013-08-22 23:02:00,62.3,52.4,29.97,SE,135,1.8,1.8,70,0.00,,,0.07,WUHU216HW,2013-08-23 06:02:00,
2013-08-22 23:07:00,62.3,52.4,29.97,SE,135,0.9,1.8,70,0.00,,,0.07,WUHU216HW,2013-08-23 06:07:00,
2013-08-22 23:12:00,61.9,52.8,29.97,East,90,1.8,1.8,72,0.00,,,0.07,WUHU216HW,2013-08-23 06:12:00,
2013-08-22 23:17:00,61.9,53.6,29.97,East,90,4.0,4.0,74,0.00,,,0.07,WUHU216HW,2013-08-23 06:17:00,
2013-08-22 23:22:00,61.9,54.3,29.97,East,90,2.0,4.3,76,0.00,,,0.07,WUHU216HW,2013-08-23 06:22:00,
2013-08-22 23:27:00,61.7,53.7,29.97,ESE,113,3.4,4.3,75,0.00,,,0.07,WUHU216HW,2013-08-23 06:27:00,
2013-08-22 23:32:00,61.7,53.7,29.97,SE,135,0.9,3.4,75,0.00,,,0.07,WUHU216HW,2013-08-23 06:32:00,
2013-08-22 23:37:00,61.6,53.6,29.97,ESE,113,2.5,2.9,75,0.00,,,0.07,WUHU216HW,2013-08-23 06:37:00,
2013-08-22 23:42:00,61.4,53.7,29.97,ESE,113,4.3,4.5,76,0.00,,,0.07,WUHU216HW,2013-08-23 06:42:00,
2013-08-22 23:47:00,60.8,54.0,29.97,SSE,158,4.0,5.4,78,0.00,,,0.07,WUHU216HW,2013-08-23 06:47:00,
2013-08-22 23:52:00,60.8,54.0,29.97,SE,135,4.0,5.4,78,0.00,,,0.07,WUHU216HW,2013-08-23 06:52:00,
2013-08-22 23:57:00,60.5,53.6,29.97,East,90,3.1,5.4,78,0.00,,,0.07,WUHU216HW,2013-08-23 06:57:00,